FDA166 RJCC-RJNS

Flight info

Callsign FDA166
Flight time 1h 47m
Altitude 30000
Route DALBI Y120 TAPPI Y12 NAKTU Y126 KIKOL/N0453F310 Y295 GAKKI Y551 ENSYU
Aircraft E75L/M-SDE3GILORVW/S

Departure

Time 2026-04-14 13:54
Airport New Chitose Airport (RJCC)

Arrival

Time 2026-04-14 15:42
Airport Mount Fuji Shizuoka Airport (RJNS)
Time Latitude Longitude Altitude Speed Heading
2026-04-14 13:21 42.78473 141.68048 90 ft 0 kts 334°
2026-04-14 13:41 42.78471 141.68049 87 ft 2 kts 334°
2026-04-14 13:41 42.78448 141.68066 90 ft 4 kts 329°
2026-04-14 13:41 42.78426 141.68085 90 ft 4 kts 326°
2026-04-14 13:42 42.78402 141.68104 89 ft 4 kts 339°
2026-04-14 13:42 42.78381 141.68106 89 ft 4 kts 14°
2026-04-14 13:42 42.78360 141.68087 89 ft 4 kts 59°
2026-04-14 13:42 42.78351 141.68054 88 ft 3 kts 76°
2026-04-14 13:43 42.78350 141.68050 88 ft 0 kts 76°
2026-04-14 13:46 42.78353 141.68062 88 ft 4 kts 68°
2026-04-14 13:47 42.78362 141.68108 87 ft 6 kts 98°
2026-04-14 13:47 42.78340 141.68167 86 ft 9 kts 123°
2026-04-14 13:47 42.78307 141.68250 86 ft 12 kts 114°
2026-04-14 13:47 42.78258 141.68353 86 ft 14 kts 129°
2026-04-14 13:48 42.78182 141.68450 85 ft 16 kts 146°
2026-04-14 13:48 42.78090 141.68526 84 ft 13 kts 148°
2026-04-14 13:48 42.78022 141.68614 83 ft 15 kts 118°
2026-04-14 13:48 42.77954 141.68731 85 ft 17 kts 153°
2026-04-14 13:49 42.77834 141.68760 84 ft 18 kts 173°
2026-04-14 13:49 42.77701 141.68783 80 ft 20 kts 172°
2026-04-14 13:49 42.77556 141.68809 77 ft 22 kts 172°
2026-04-14 13:49 42.77401 141.68836 74 ft 23 kts 172°
2026-04-14 13:50 42.77236 141.68866 71 ft 25 kts 171°
2026-04-14 13:50 42.77068 141.68892 72 ft 22 kts 172°
2026-04-14 13:50 42.76910 141.68922 72 ft 24 kts 172°
2026-04-14 13:50 42.76743 141.68952 69 ft 25 kts 173°
2026-04-14 13:51 42.76571 141.68982 66 ft 26 kts 172°
2026-04-14 13:51 42.76415 141.69009 64 ft 19 kts 173°
2026-04-14 13:51 42.76281 141.69033 66 ft 18 kts 173°
2026-04-14 13:51 42.76174 141.69078 68 ft 17 kts 133°
2026-04-14 13:52 42.76168 141.69181 66 ft 9 kts 80°
2026-04-14 13:52 42.76182 141.69264 63 ft 8 kts 57°
2026-04-14 13:52 42.76214 141.69275 67 ft 0 kts 350°
2026-04-14 13:53 42.76350 141.69251 65 ft 54 kts 354°
2026-04-14 13:54 42.76981 141.69140 74 ft 128 kts 352°
2026-04-14 13:54 42.78052 141.68957 332 ft 171 kts 352°
2026-04-14 13:54 42.79252 141.68717 1326 ft 176 kts 351°
2026-04-14 13:54 42.80481 141.68636 2414 ft 180 kts
2026-04-14 13:55 42.81742 141.69146 3091 ft 211 kts 30°
2026-04-14 13:55 42.82771 141.70841 3351 ft 250 kts 66°
2026-04-14 13:55 42.82983 141.73146 3397 ft 245 kts 99°
2026-04-14 13:55 42.82242 141.75215 3317 ft 258 kts 136°
2026-04-14 13:56 42.80744 141.76532 3325 ft 263 kts 164°
2026-04-14 13:56 42.78951 141.76641 3375 ft 259 kts 195°
2026-04-14 13:56 42.77386 141.75521 3336 ft 255 kts 219°
2026-04-14 13:56 42.75999 141.74015 3415 ft 255 kts 220°
2026-04-14 13:57 42.74581 141.72542 3881 ft 255 kts 216°
2026-04-14 13:57 42.73085 141.71232 4615 ft 257 kts 214°
2026-04-14 13:57 42.71550 141.69967 5328 ft 259 kts 213°
2026-04-14 13:57 42.70021 141.68645 6004 ft 261 kts 217°
2026-04-14 13:58 42.68519 141.67245 6648 ft 263 kts 218°
2026-04-14 13:58 42.67033 141.65849 7292 ft 264 kts 218°
2026-04-14 13:58 42.65519 141.64425 7936 ft 265 kts 218°
2026-04-14 13:58 42.63997 141.62997 8569 ft 267 kts 218°
2026-04-14 13:59 42.62467 141.61564 9211 ft 268 kts 218°
2026-04-14 13:59 42.60931 141.60125 9846 ft 269 kts 219°
2026-04-14 13:59 42.59371 141.58661 10178 ft 280 kts 219°
2026-04-14 13:59 42.57728 141.57122 10401 ft 292 kts 218°
2026-04-14 14:00 42.56046 141.55556 10911 ft 294 kts 219°
2026-04-14 14:00 42.54355 141.53980 11446 ft 295 kts 219°
2026-04-14 14:00 42.52683 141.52418 11993 ft 297 kts 219°
2026-04-14 14:00 42.50980 141.50829 12562 ft 298 kts 220°
2026-04-14 14:01 42.49421 141.49020 13130 ft 294 kts 231°
2026-04-14 14:01 42.48092 141.46926 13757 ft 293 kts 236°
2026-04-14 14:01 42.46864 141.44731 14356 ft 293 kts 238°
2026-04-14 14:01 42.45672 141.42488 14930 ft 294 kts 239°
2026-04-14 14:02 42.44520 141.40199 15517 ft 294 kts 243°
2026-04-14 14:02 42.43503 141.37798 16092 ft 295 kts 245°
2026-04-14 14:02 42.42505 141.35366 16682 ft 296 kts 245°
2026-04-14 14:02 42.41349 141.33076 17244 ft 305 kts 233°
2026-04-14 14:03 42.39751 141.31125 17825 ft 312 kts 226°
2026-04-14 14:03 42.38044 141.29281 18429 ft 316 kts 225°
2026-04-14 14:03 42.36293 141.27455 18930 ft 317 kts 225°
2026-04-14 14:03 42.34564 141.25553 19410 ft 319 kts 229°
2026-04-14 14:04 42.32897 141.23541 20219 ft 324 kts 230°
2026-04-14 14:04 42.31224 141.21473 20833 ft 330 kts 230°
2026-04-14 14:04 42.29528 141.19369 21597 ft 333 kts 230°
2026-04-14 14:04 42.27810 141.17237 22204 ft 338 kts 230°
2026-04-14 14:05 42.26088 141.15104 22674 ft 342 kts 230°
2026-04-14 14:05 42.24325 141.12924 23169 ft 345 kts 231°
2026-04-14 14:05 42.22546 141.10726 23683 ft 349 kts 231°
2026-04-14 14:05 42.20749 141.08508 24180 ft 350 kts 231°
2026-04-14 14:06 42.18950 141.06290 24705 ft 351 kts 231°
2026-04-14 14:06 42.17148 141.04069 25232 ft 352 kts 231°
2026-04-14 14:06 42.15339 141.01841 25738 ft 353 kts 231°
2026-04-14 14:06 42.13526 140.99609 26220 ft 353 kts 231°
2026-04-14 14:07 42.11733 140.97405 26673 ft 354 kts 231°
2026-04-14 14:07 42.09909 140.95164 27126 ft 355 kts 231°
2026-04-14 14:07 42.08080 140.92920 27559 ft 356 kts 231°
2026-04-14 14:07 42.06244 140.90669 27986 ft 357 kts 231°
2026-04-14 14:08 42.04403 140.88413 28395 ft 359 kts 232°
2026-04-14 14:08 42.02554 140.86150 28790 ft 360 kts 232°
2026-04-14 14:08 42.00699 140.83881 29171 ft 361 kts 232°
2026-04-14 14:08 41.98840 140.81607 29544 ft 362 kts 232°
2026-04-14 14:09 41.97001 140.79363 29843 ft 359 kts 232°
2026-04-14 14:09 41.93309 140.74851 30011 ft 368 kts 232°
2026-04-14 14:09 41.91383 140.72506 30017 ft 379 kts 232°
2026-04-14 14:10 41.89419 140.70125 30009 ft 379 kts 231°
2026-04-14 14:10 41.85528 140.65396 29973 ft 377 kts 232°
2026-04-14 14:11 41.81668 140.60710 29991 ft 377 kts 232°
2026-04-14 14:11 41.77770 140.55987 29988 ft 378 kts 232°
2026-04-14 14:12 41.73872 140.51273 29975 ft 378 kts 232°
2026-04-14 14:12 41.69972 140.46563 29989 ft 378 kts 232°
2026-04-14 14:13 41.66067 140.41858 29988 ft 378 kts 232°
2026-04-14 14:13 41.62183 140.37185 29989 ft 378 kts 232°
2026-04-14 14:14 41.57972 140.32858 30031 ft 393 kts 218°
2026-04-14 14:14 41.55405 140.31471 30058 ft 406 kts 208°
2026-04-14 14:14 41.52633 140.30577 30102 ft 414 kts 204°
2026-04-14 14:15 41.47014 140.28779 30099 ft 414 kts 206°
2026-04-14 14:15 41.41495 140.26764 30101 ft 413 kts 207°
2026-04-14 14:16 41.35945 140.24722 30097 ft 414 kts 207°
2026-04-14 14:16 41.30390 140.22685 30101 ft 414 kts 207°
2026-04-14 14:17 41.22097 140.19653 30092 ft 414 kts 206°
2026-04-14 14:17 41.16547 140.17605 30082 ft 412 kts 207°
2026-04-14 14:18 41.10969 140.15639 30092 ft 415 kts 206°
2026-04-14 14:18 41.05381 140.13702 30096 ft 415 kts 206°
2026-04-14 14:19 40.99832 140.11782 30092 ft 415 kts 205°
2026-04-14 14:19 40.94251 140.09855 30084 ft 415 kts 205°
2026-04-14 14:20 40.88669 140.07930 30086 ft 415 kts 205°
2026-04-14 14:20 40.83087 140.06009 30091 ft 414 kts 205°
2026-04-14 14:21 40.77509 140.04093 30079 ft 414 kts 205°
2026-04-14 14:21 40.71972 140.02193 30089 ft 414 kts 205°
2026-04-14 14:22 40.66399 140.00285 30085 ft 414 kts 205°
2026-04-14 14:22 40.60836 139.98383 30075 ft 413 kts 204°
2026-04-14 14:23 40.55267 139.96483 30082 ft 413 kts 204°
2026-04-14 14:23 40.49738 139.94601 30080 ft 413 kts 204°
2026-04-14 14:24 40.44175 139.92708 30074 ft 413 kts 204°
2026-04-14 14:24 40.38614 139.90823 30067 ft 413 kts 204°
2026-04-14 14:25 40.33052 139.88940 30067 ft 413 kts 204°
2026-04-14 14:25 40.27493 139.87062 30066 ft 412 kts 203°
2026-04-14 14:26 40.21971 139.85199 30068 ft 412 kts 203°
2026-04-14 14:26 40.16409 139.83326 30057 ft 413 kts 203°
2026-04-14 14:27 40.10847 139.81456 30064 ft 413 kts 203°
2026-04-14 14:27 40.05283 139.79589 30059 ft 413 kts 203°
2026-04-14 14:28 39.99763 139.77739 30058 ft 412 kts 203°
2026-04-14 14:28 39.94208 139.75881 30066 ft 412 kts 203°
2026-04-14 14:29 39.88654 139.74027 30079 ft 412 kts 203°
2026-04-14 14:29 39.83104 139.72177 30048 ft 411 kts 202°
2026-04-14 14:30 39.77595 139.70344 30067 ft 411 kts 202°
2026-04-14 14:30 39.72053 139.68501 30052 ft 411 kts 202°
2026-04-14 14:31 39.66519 139.66666 30056 ft 411 kts 202°
2026-04-14 14:31 39.60984 139.64834 30050 ft 411 kts 202°
2026-04-14 14:32 39.55451 139.63005 30052 ft 410 kts 202°
2026-04-14 14:32 39.49954 139.61191 30051 ft 410 kts 202°
2026-04-14 14:33 39.44422 139.59368 30047 ft 410 kts 202°
2026-04-14 14:33 39.38889 139.57548 30055 ft 411 kts 202°
2026-04-14 14:34 39.30604 139.54828 30050 ft 411 kts 203°
2026-04-14 14:35 39.25051 139.53009 30046 ft 412 kts 203°
2026-04-14 14:35 39.19487 139.51189 30052 ft 412 kts 203°
2026-04-14 14:36 39.13932 139.49374 30046 ft 412 kts 203°
2026-04-14 14:36 39.08374 139.47562 30051 ft 412 kts 203°
2026-04-14 14:37 39.02855 139.45766 30045 ft 412 kts 203°
2026-04-14 14:37 38.97295 139.43959 30043 ft 412 kts 203°
2026-04-14 14:38 38.91736 139.42155 30047 ft 412 kts 203°
2026-04-14 14:38 38.86180 139.40356 30040 ft 412 kts 203°
2026-04-14 14:39 38.80648 139.38567 30051 ft 413 kts 203°
2026-04-14 14:39 38.75074 139.36768 30043 ft 413 kts 203°
2026-04-14 14:40 38.69493 139.34968 30047 ft 414 kts 203°
2026-04-14 14:40 38.63909 139.33171 30048 ft 413 kts 202°
2026-04-14 14:41 38.58250 139.31349 30062 ft 433 kts 202°
2026-04-14 14:41 38.52312 139.29447 30064 ft 452 kts 202°
2026-04-14 14:42 38.46095 139.27457 30051 ft 469 kts 202°
2026-04-14 14:42 38.42933 139.26451 30406 ft 468 kts 202°
2026-04-14 14:42 38.39776 139.25439 30723 ft 467 kts 202°
2026-04-14 14:42 38.36627 139.24434 31024 ft 467 kts 202°
2026-04-14 14:43 38.33526 139.23444 31334 ft 466 kts 202°
2026-04-14 14:43 38.30393 139.22446 31654 ft 465 kts 202°
2026-04-14 14:43 38.27261 139.21448 31973 ft 465 kts 202°
2026-04-14 14:43 38.24138 139.20454 32271 ft 464 kts 202°
2026-04-14 14:44 38.21016 139.19461 32594 ft 462 kts 202°
2026-04-14 14:44 38.17908 139.18474 32943 ft 460 kts 202°
2026-04-14 14:44 38.14800 139.17489 33315 ft 458 kts 202°
2026-04-14 14:44 38.11705 139.16507 33637 ft 457 kts 202°
2026-04-14 14:45 38.08619 139.15530 33903 ft 457 kts 202°
2026-04-14 14:45 38.05575 139.14568 34166 ft 456 kts 203°
2026-04-14 14:45 38.02502 139.13595 34360 ft 456 kts 203°
2026-04-14 14:45 37.99429 139.12611 34549 ft 454 kts 205°
2026-04-14 14:46 37.96467 139.11340 34765 ft 447 kts 210°
2026-04-14 14:46 37.93601 139.09856 34992 ft 440 kts 214°
2026-04-14 14:46 37.90885 139.08103 35239 ft 437 kts 216°
2026-04-14 14:46 37.88196 139.06301 35472 ft 435 kts 217°
2026-04-14 14:47 37.85503 139.04472 35455 ft 439 kts 217°
2026-04-14 14:47 37.82852 139.02684 36088 ft 421 kts 217°
2026-04-14 14:47 37.80373 139.01003 35859 ft 406 kts 218°
2026-04-14 14:47 37.77897 138.99311 35233 ft 403 kts 217°
2026-04-14 14:48 37.75440 138.97648 34637 ft 399 kts 217°
2026-04-14 14:48 37.73007 138.96003 34072 ft 394 kts 217°
2026-04-14 14:48 37.70602 138.94380 33430 ft 390 kts 217°
2026-04-14 14:48 37.68221 138.92772 32788 ft 386 kts 217°
2026-04-14 14:49 37.65868 138.91184 32170 ft 382 kts 217°
2026-04-14 14:49 37.63557 138.89624 31580 ft 384 kts 217°
2026-04-14 14:49 37.61171 138.88012 31012 ft 394 kts 217°
2026-04-14 14:49 37.58739 138.86378 30455 ft 397 kts 217°
2026-04-14 14:50 37.56309 138.84747 30220 ft 396 kts 217°
2026-04-14 14:50 37.51409 138.81453 30092 ft 401 kts 216°
2026-04-14 14:51 37.46480 138.78146 30058 ft 402 kts 216°
2026-04-14 14:51 37.41580 138.74861 30059 ft 402 kts 216°
2026-04-14 14:52 37.36638 138.71553 30043 ft 402 kts 216°
2026-04-14 14:52 37.31692 138.68247 30044 ft 403 kts 216°
2026-04-14 14:53 37.26739 138.64941 30050 ft 403 kts 216°
2026-04-14 14:53 37.21823 138.61665 30028 ft 403 kts 216°
2026-04-14 14:54 37.16860 138.58362 30024 ft 404 kts 216°
2026-04-14 14:54 37.11894 138.55064 30059 ft 404 kts 216°
2026-04-14 14:55 37.07766 138.52323 30054 ft 404 kts 216°
2026-04-14 14:55 37.01990 138.48496 30057 ft 404 kts 216°
2026-04-14 14:56 36.94537 138.43564 30061 ft 404 kts 216°
2026-04-14 14:56 36.90408 138.40839 30045 ft 403 kts 216°
2026-04-14 14:57 36.84647 138.37044 30061 ft 402 kts 216°
2026-04-14 14:57 36.79697 138.33780 30035 ft 403 kts 216°
2026-04-14 14:58 36.75577 138.31066 30004 ft 403 kts 216°
2026-04-14 14:58 36.70627 138.27813 30040 ft 402 kts 216°
2026-04-14 14:59 36.65682 138.24566 30076 ft 402 kts 216°
2026-04-14 14:59 36.60743 138.21328 30063 ft 401 kts 216°
2026-04-14 15:00 36.55837 138.18117 30078 ft 401 kts 216°
2026-04-14 15:00 36.53380 138.16510 29502 ft 400 kts 216°
2026-04-14 15:00 36.50920 138.14902 28660 ft 398 kts 215°
2026-04-14 15:01 36.48478 138.13307 27929 ft 394 kts 215°
2026-04-14 15:01 36.46059 138.11726 27146 ft 392 kts 214°
2026-04-14 15:01 36.42881 138.09662 26233 ft 387 kts 214°
2026-04-14 15:01 36.40502 138.08113 25542 ft 384 kts 214°
2026-04-14 15:02 36.38941 138.07099 25080 ft 382 kts 214°
2026-04-14 15:02 36.36592 138.05572 24416 ft 380 kts 214°
2026-04-14 15:02 36.34255 138.04056 23811 ft 378 kts 213°
2026-04-14 15:02 36.31932 138.02549 23164 ft 375 kts 213°
2026-04-14 15:03 36.29637 138.01059 22506 ft 371 kts 213°
2026-04-14 15:03 36.27363 137.99587 21867 ft 366 kts 212°
2026-04-14 15:03 36.25117 137.98134 21253 ft 363 kts 212°
2026-04-14 15:03 36.22894 137.96695 20683 ft 358 kts 212°
2026-04-14 15:04 36.20699 137.95278 20277 ft 352 kts 211°
2026-04-14 15:04 36.18342 137.94289 20174 ft 366 kts 192°
2026-04-14 15:04 36.15773 137.94348 20130 ft 372 kts 180°
2026-04-14 15:04 36.13231 137.94717 20095 ft 374 kts 178°
2026-04-14 15:05 36.10649 137.95134 20089 ft 375 kts 178°
2026-04-14 15:05 36.08057 137.95559 20075 ft 376 kts 178°
2026-04-14 15:05 36.05462 137.95908 20098 ft 376 kts 179°
2026-04-14 15:05 36.02853 137.96268 20066 ft 377 kts 179°
2026-04-14 15:06 36.00238 137.96536 20061 ft 376 kts 182°
2026-04-14 15:06 35.97627 137.96686 20051 ft 376 kts 183°
2026-04-14 15:06 35.95012 137.96815 20060 ft 376 kts 183°
2026-04-14 15:06 35.92426 137.96937 19992 ft 376 kts 183°
2026-04-14 15:07 35.89817 137.97060 19910 ft 376 kts 183°
2026-04-14 15:07 35.87202 137.97183 19841 ft 376 kts 183°
2026-04-14 15:07 35.84589 137.97307 19772 ft 375 kts 183°
2026-04-14 15:07 35.81984 137.97431 19821 ft 376 kts 183°
2026-04-14 15:08 35.79360 137.97555 19946 ft 378 kts 183°
2026-04-14 15:08 35.76731 137.97679 20022 ft 379 kts 183°
2026-04-14 15:08 35.74129 137.97802 20059 ft 379 kts 183°
2026-04-14 15:08 35.71492 137.97928 20076 ft 379 kts 183°
2026-04-14 15:09 35.68855 137.98052 20055 ft 379 kts 183°
2026-04-14 15:09 35.66217 137.98178 20078 ft 379 kts 183°
2026-04-14 15:09 35.63580 137.98303 20081 ft 380 kts 183°
2026-04-14 15:09 35.60941 137.98426 20051 ft 380 kts 183°
2026-04-14 15:10 35.58303 137.98551 20076 ft 380 kts 183°
2026-04-14 15:10 35.55659 137.98676 20070 ft 380 kts 183°
2026-04-14 15:10 35.53018 137.98802 20066 ft 380 kts 183°
2026-04-14 15:10 35.50414 137.98925 20080 ft 380 kts 183°
2026-04-14 15:11 35.47770 137.99049 20057 ft 379 kts 183°
2026-04-14 15:11 35.45135 137.99170 20043 ft 380 kts 183°
2026-04-14 15:11 35.42492 137.99298 20073 ft 380 kts 183°
2026-04-14 15:11 35.39848 137.99423 20096 ft 381 kts 183°
2026-04-14 15:12 35.37202 137.99544 20054 ft 381 kts 183°
2026-04-14 15:12 35.34559 137.99672 20089 ft 380 kts 183°
2026-04-14 15:12 35.31918 138.00011 20071 ft 388 kts 171°
2026-04-14 15:12 35.29371 138.01057 20072 ft 393 kts 164°
2026-04-14 15:13 35.26829 138.02292 20049 ft 393 kts 163°
2026-04-14 15:13 35.24297 138.03559 20051 ft 392 kts 164°
2026-04-14 15:13 35.21732 138.04625 19419 ft 388 kts 167°
2026-04-14 15:13 35.19181 138.05641 18870 ft 383 kts 167°
2026-04-14 15:14 35.16653 138.06632 18446 ft 380 kts 167°
2026-04-14 15:14 35.14142 138.07610 18200 ft 377 kts 167°
2026-04-14 15:14 35.11653 138.08580 17956 ft 375 kts 167°
2026-04-14 15:14 35.09203 138.09534 17715 ft 374 kts 167°
2026-04-14 15:15 35.06731 138.10495 17440 ft 372 kts 167°
2026-04-14 15:15 35.04276 138.11453 17206 ft 370 kts 167°
2026-04-14 15:15 35.01832 138.12402 16963 ft 368 kts 167°
2026-04-14 15:15 34.99399 138.13347 16689 ft 365 kts 166°
2026-04-14 15:16 34.96984 138.14286 16419 ft 364 kts 167°
2026-04-14 15:16 34.94576 138.15221 16152 ft 362 kts 166°
2026-04-14 15:16 34.92186 138.16149 15920 ft 360 kts 166°
2026-04-14 15:16 34.89811 138.17071 15671 ft 357 kts 166°
2026-04-14 15:17 34.87477 138.17977 15443 ft 356 kts 166°
2026-04-14 15:17 34.85194 138.19151 15216 ft 359 kts 152°
2026-04-14 15:17 34.83126 138.20861 15125 ft 360 kts 148°
2026-04-14 15:17 34.81107 138.22678 15078 ft 361 kts 146°
2026-04-14 15:18 34.79057 138.24428 15061 ft 359 kts 151°
2026-04-14 15:18 34.76951 138.26068 15057 ft 360 kts 151°
2026-04-14 15:18 34.74835 138.27691 15061 ft 359 kts 151°
2026-04-14 15:18 34.72720 138.29304 15061 ft 359 kts 151°
2026-04-14 15:19 34.70631 138.30896 15056 ft 359 kts 152°
2026-04-14 15:19 34.68514 138.32509 15050 ft 359 kts 151°
2026-04-14 15:19 34.66398 138.34121 15042 ft 359 kts 151°
2026-04-14 15:19 34.64279 138.35735 15039 ft 359 kts 151°
2026-04-14 15:20 34.62163 138.37346 15044 ft 359 kts 151°
2026-04-14 15:20 34.60047 138.38956 15039 ft 360 kts 151°
2026-04-14 15:20 34.57926 138.40569 15039 ft 360 kts 151°
2026-04-14 15:20 34.55806 138.42181 15043 ft 360 kts 151°
2026-04-14 15:21 34.53683 138.43793 15033 ft 360 kts 151°
2026-04-14 15:21 34.51593 138.45380 15028 ft 360 kts 151°
2026-04-14 15:21 34.49465 138.46994 14775 ft 360 kts 151°
2026-04-14 15:21 34.47356 138.48593 14454 ft 356 kts 151°
2026-04-14 15:22 34.45264 138.50178 13977 ft 353 kts 151°
2026-04-14 15:22 34.43196 138.51744 13456 ft 348 kts 150°
2026-04-14 15:22 34.41271 138.53473 12917 ft 346 kts 135°
2026-04-14 15:22 34.39998 138.55939 12212 ft 350 kts 111°
2026-04-14 15:23 34.39628 138.58790 11395 ft 349 kts 88°
2026-04-14 15:23 34.40223 138.61578 10527 ft 338 kts 64°
2026-04-14 15:23 34.41659 138.63729 9642 ft 324 kts 38°
2026-04-14 15:23 34.43644 138.64876 8733 ft 314 kts 12°
2026-04-14 15:24 34.45775 138.64840 7836 ft 305 kts 345°
2026-04-14 15:24 34.47745 138.64030 6964 ft 294 kts 349°
2026-04-14 15:24 34.49744 138.64056 6083 ft 286 kts 17°
2026-04-14 15:24 34.51457 138.65193 5216 ft 278 kts 46°
2026-04-14 15:25 34.52502 138.67057 4435 ft 268 kts 66°
2026-04-14 15:25 34.53204 138.69088 4222 ft 257 kts 70°
2026-04-14 15:25 34.53951 138.71046 4036 ft 259 kts 54°
2026-04-14 15:25 34.55378 138.72365 3970 ft 264 kts 22°
2026-04-14 15:26 34.57211 138.72575 3991 ft 271 kts 351°
2026-04-14 15:26 34.58921 138.71590 4014 ft 277 kts 320°
2026-04-14 15:26 34.60109 138.69771 4027 ft 276 kts 303°
2026-04-14 15:26 34.61126 138.67793 4021 ft 276 kts 302°
2026-04-14 15:27 34.62154 138.65826 4011 ft 276 kts 303°
2026-04-14 15:27 34.63257 138.63968 3997 ft 275 kts 312°
2026-04-14 15:27 34.64468 138.62172 3993 ft 275 kts 305°
2026-04-14 15:27 34.65494 138.60208 3991 ft 276 kts 301°
2026-04-14 15:28 34.66400 138.58160 4000 ft 275 kts 294°
2026-04-14 15:28 34.67160 138.56023 3996 ft 276 kts 292°
2026-04-14 15:28 34.67892 138.53871 3988 ft 276 kts 292°
2026-04-14 15:28 34.68618 138.51712 3998 ft 277 kts 292°
2026-04-14 15:29 34.69345 138.49551 4003 ft 276 kts 292°
2026-04-14 15:29 34.70050 138.47411 3997 ft 276 kts 292°
2026-04-14 15:29 34.70779 138.45246 3995 ft 277 kts 292°
2026-04-14 15:29 34.71512 138.43080 3935 ft 279 kts 292°
2026-04-14 15:30 34.72247 138.40900 3767 ft 278 kts 292°
2026-04-14 15:30 34.72977 138.38733 3621 ft 276 kts 292°
2026-04-14 15:30 34.73694 138.36577 3488 ft 268 kts 292°
2026-04-14 15:30 34.74364 138.34571 3572 ft 244 kts 293°
2026-04-14 15:31 34.75020 138.32699 3156 ft 243 kts 293°
2026-04-14 15:31 34.75617 138.30915 3064 ft 218 kts 292°
2026-04-14 15:31 34.76151 138.29298 2971 ft 197 kts 292°
2026-04-14 15:31 34.76676 138.27730 2912 ft 215 kts 293°
2026-04-14 15:32 34.77276 138.25928 2975 ft 236 kts 292°
2026-04-14 15:32 34.77889 138.24081 2971 ft 234 kts 292°
2026-04-14 15:32 34.78495 138.22260 2949 ft 231 kts 293°
2026-04-14 15:32 34.78914 138.20334 2484 ft 245 kts 268°
2026-04-14 15:33 34.78489 138.18430 2523 ft 231 kts 243°
2026-04-14 15:33 34.77782 138.16669 2677 ft 234 kts 242°
2026-04-14 15:33 34.77055 138.14908 2685 ft 232 kts 240°
2026-04-14 15:33 34.76275 138.13204 2690 ft 231 kts 237°
2026-04-14 15:34 34.75455 138.11510 2714 ft 228 kts 236°
2026-04-14 15:34 34.74641 138.09988 2762 ft 197 kts 233°
2026-04-14 15:34 34.73929 138.08756 2825 ft 164 kts 231°
2026-04-14 15:34 34.73218 138.07668 3048 ft 166 kts 224°
2026-04-14 15:35 34.72483 138.06608 3340 ft 173 kts 242°
2026-04-14 15:35 34.72372 138.05155 3128 ft 176 kts 283°
2026-04-14 15:35 34.72841 138.03813 2909 ft 167 kts 297°
2026-04-14 15:35 34.73378 138.02540 2988 ft 174 kts 299°
2026-04-14 15:36 34.73910 138.01234 3008 ft 170 kts 300°
2026-04-14 15:36 34.74601 138.00042 2906 ft 172 kts 316°
2026-04-14 15:36 34.75519 137.99183 2671 ft 164 kts 343°
2026-04-14 15:36 34.76592 137.99013 2554 ft 151 kts 12°
2026-04-14 15:37 34.77616 137.99224 2884 ft 154 kts 12°
2026-04-14 15:37 34.78726 137.99310 2953 ft 161 kts 11°
2026-04-14 15:37 34.79746 137.99738 2777 ft 153 kts 32°
2026-04-14 15:37 34.80565 138.00494 2716 ft 146 kts 48°
2026-04-14 15:38 34.81224 138.01421 2955 ft 146 kts 59°
2026-04-14 15:38 34.81774 138.02473 3081 ft 147 kts 60°
2026-04-14 15:38 34.82222 138.03600 3086 ft 150 kts 70°
2026-04-14 15:38 34.82516 138.04806 2802 ft 148 kts 80°
2026-04-14 15:39 34.82676 138.06023 2550 ft 146 kts 82°
2026-04-14 15:39 34.82829 138.07220 2434 ft 142 kts 83°
2026-04-14 15:39 34.82871 138.08427 2462 ft 146 kts 92°
2026-04-14 15:39 34.82719 138.09654 2241 ft 148 kts 104°
2026-04-14 15:40 34.82355 138.10805 2004 ft 145 kts 111°
2026-04-14 15:40 34.81926 138.11924 1678 ft 147 kts 110°
2026-04-14 15:40 34.81543 138.13058 1441 ft 144 kts 108°
2026-04-14 15:40 34.81189 138.14229 1193 ft 149 kts 110°
2026-04-14 15:41 34.80773 138.15385 932 ft 149 kts 110°
2026-04-14 15:41 34.80390 138.16551 702 ft 151 kts 110°
2026-04-14 15:41 34.80008 138.17721 511 ft 146 kts 111°
2026-04-14 15:41 34.79658 138.18772 435 ft 108 kts 111°
2026-04-14 15:42 34.79475 138.19322 419 ft 53 kts 111°
2026-04-14 15:42 34.79379 138.19606 426 ft 20 kts 111°
2026-04-14 15:42 34.79294 138.19680 424 ft 17 kts 196°
2026-04-14 15:42 34.79206 138.19594 421 ft 17 kts 278°
2026-04-14 15:43 34.79246 138.19470 422 ft 16 kts 290°
2026-04-14 15:43 34.79290 138.19339 422 ft 18 kts 292°
2026-04-14 15:43 34.79337 138.19196 424 ft 19 kts 292°
2026-04-14 15:43 34.79388 138.19044 432 ft 20 kts 291°
2026-04-14 15:44 34.79443 138.18879 434 ft 23 kts 292°
2026-04-14 15:44 34.79506 138.18690 432 ft 24 kts 291°
2026-04-14 15:44 34.79569 138.18499 441 ft 24 kts 292°
2026-04-14 15:44 34.79633 138.18311 444 ft 21 kts 292°
2026-04-14 15:45 34.79665 138.18214 439 ft 10 kts 292°
2026-04-14 15:45 34.79680 138.18165 446 ft 2 kts 272°
2026-04-14 15:45 34.79662 138.18148 446 ft 6 kts 200°
2026-04-14 15:45 34.79619 138.18128 446 ft 7 kts 199°
2026-04-14 15:46 34.79585 138.18111 446 ft 5 kts 203°
2026-04-14 15:46 34.79575 138.18106 446 ft 0 kts 202°